Orbital Elements at Epoch 2459000.5 (2020-May-31.0) TDB
Reference: JPL 19 (heliocentric ecliptic J2000)
Element | Value | Uncertainty (1-sigma) | Units |
e | .09628337829087882 | 5.6605e-08 | |
a | 2.541310158723535 | 1.4466e-08 | au |
q | 2.296624231356704 | 1.4607e-07 | au |
i | 2.790516606069629 | 5.4352e-06 | deg |
node | 240.9472678428353 | 0.00010059 | deg |
peri | 276.1655283000403 | 0.0001094 | deg |
M | 36.1580885363139 | 3.8511e-05 | deg |
tp | 2458851.876358235713 (2020-Jan-03.37635824) | 0.00015851 | TDB |
period | 1479.738371164404 4.05 | 1.2634e-05 3.459e-08 | d yr |
n | .2432862504719105 | 2.0773e-09 | deg/d |
Q | 2.785996086090367 | 1.5859e-08 | au |
|
| | Orbit Determination Parameters
Additional Information
|